Lawrence, MA

6:57 AM EST on November 13, 2019 (GMT -0500)
Lawrence Municipal

Weather History for KLWM - August, 2019

Change the Weather History Date:

Thursday, August 29, 2019

  Actual Average Record
Temperature  
Mean Temperature 73 °F -  
Max Temperature 82 °F 80 °F 97 °F (1953)
Min Temperature 64 °F 59 °F 43 °F (1986)
Cooling Degree Days 8    
Growing Degree Days 23 (Base 50)    
Moisture  
Dew Point 62 °F    
Average Humidity 77    
Maximum Humidity 100    
Minimum Humidity 43    
Precipitation  
Precipitation 0.34 in - - ()
Sea Level Pressure  
Sea Level Pressure 29.83 in    
Wind  
Wind Speed 5 mph (NW)    
Max Wind Speed 12 mph    
Max Gust Speed -    
Visibility 9 miles    
Events Rain    
Averages and records for this station are not official NWS values.
T = Trace of Precipitation, MM = Missing Value Source: NWS Daily Summary

Daily Weather History Graph

Daily Weather History Graph

Search for Another Location

Airport or City:

Astronomy

Aug. 29, 2019 Rise Set
Actual Time 6:05 AM EDT 7:24 PM EDT
Civil Twilight 5:36 AM EDT 7:53 PM EDT
Nautical Twilight 5:01 AM EDT 8:28 PM EDT
Astronomical Twilight 4:23 AM EDT 9:05 PM EDT
Moon 4:44 AM EDT (8/29) 7:20 PM EDT (8/29)
Length of Visible Light 14h 17m
Length of Day
13h 18m
Waning Crescent, 1% of the Moon is Illuminated
Aug 29
Waning Crescent
Aug 30
New
Sep 5
First Quarter
Sep 14
Full
Sep 21
Last Quarter

Hourly Weather History & Observations

Time (EDT) Temp. Heat Index Dew Point Humidity Pressure Visibility Wind Dir Wind Speed Gust Speed Precip Events Conditions
12:01 AM 66.0 °F - 64.9 °F 96% 29.83 in 2.5 mi North 4.6 mph - 0.08 in Rain Heavy Rain
12:17 AM 66.0 °F - 64.9 °F 96% 29.83 in 4.0 mi NNW 3.5 mph - 0.13 in Rain Rain
12:33 AM 66.0 °F - 64.9 °F 96% 29.82 in 2.5 mi NNE 6.9 mph - 0.23 in Rain Heavy Rain
12:54 AM 66.0 °F - 64.9 °F 96% 29.81 in 5.0 mi NNE 6.9 mph - 0.32 in Rain Rain
1:31 AM 66.0 °F - 64.9 °F 96% 29.81 in 10.0 mi NW 3.5 mph - 0.02 in   Overcast
1:54 AM 66.0 °F - 64.0 °F 93% 29.80 in 8.0 mi NW 4.6 mph - 0.02 in   Overcast
2:54 AM 66.0 °F - 64.0 °F 93% 29.79 in 10.0 mi NW 5.8 mph - N/A   Overcast
3:54 AM 64.9 °F - 64.0 °F 97% 29.80 in 10.0 mi North 3.5 mph - N/A   Overcast
4:54 AM 64.9 °F - 64.0 °F 97% 29.80 in 9.0 mi North 5.8 mph - N/A   Overcast
5:50 AM 64.4 °F - 64.4 °F 100% 29.81 in 10.0 mi NNW 3.5 mph - N/A   Mostly Cloudy
5:54 AM 64.9 °F - 64.0 °F 97% 29.81 in 10.0 mi Calm Calm - N/A   Mostly Cloudy
6:42 AM 64.9 °F - 64.0 °F 97% 29.82 in 10.0 mi West 3.5 mph - N/A   Overcast
6:54 AM 64.9 °F - 64.0 °F 97% 29.82 in 10.0 mi WNW 3.5 mph - N/A   Overcast
7:24 AM 66.0 °F - 64.0 °F 93% 29.82 in 10.0 mi Variable 3.5 mph - N/A   Overcast
7:54 AM 66.0 °F - 64.0 °F 93% 29.82 in 10.0 mi Calm Calm - N/A   Overcast
8:54 AM 69.1 °F - 64.9 °F 87% 29.81 in 10.0 mi NW 3.5 mph - N/A   Clear
9:54 AM 71.1 °F - 64.0 °F 78% 29.83 in 10.0 mi NNW 9.2 mph - N/A   Clear
10:54 AM 75.0 °F - 64.0 °F 69% 29.84 in 10.0 mi North 8.1 mph - N/A   Clear
11:54 AM 75.9 °F - 64.0 °F 67% 29.84 in 10.0 mi NNW 5.8 mph - N/A   Clear
12:54 PM 79.0 °F - 63.0 °F 58% 29.82 in 10.0 mi North 6.9 mph - N/A   Clear
1:54 PM 81.0 °F 82.5 °F 64.0 °F 56% 29.81 in 10.0 mi North 4.6 mph - N/A   Partly Cloudy
2:54 PM 81.0 °F 81.6 °F 60.1 °F 49% 29.80 in 10.0 mi NW 9.2 mph - N/A   Clear
3:54 PM 82.0 °F 82.0 °F 57.9 °F 44% 29.80 in 10.0 mi NW 10.4 mph - N/A   Partly Cloudy
4:54 PM 81.0 °F 81.1 °F 57.9 °F 45% 29.80 in 10.0 mi WNW 11.5 mph - N/A   Clear
5:54 PM 80.1 °F 80.2 °F 55.9 °F 43% 29.81 in 10.0 mi Variable 4.6 mph - N/A   Clear
6:54 PM 78.1 °F - 57.9 °F 50% 29.83 in 10.0 mi West 5.8 mph - N/A   Clear
7:54 PM 75.0 °F - 55.9 °F 51% 29.87 in 10.0 mi West 5.8 mph - N/A   Clear
8:54 PM 72.0 °F - 57.0 °F 59% 29.91 in 10.0 mi West 5.8 mph - N/A   Clear
9:54 PM 71.1 °F - 57.0 °F 61% 29.92 in 10.0 mi West 5.8 mph - N/A   Clear
10:54 PM 66.9 °F - 57.0 °F 70% 29.94 in 10.0 mi Calm Calm - N/A   Clear
11:54 PM 64.9 °F - 57.0 °F 75% 29.94 in 10.0 mi South 3.5 mph - N/A   Clear